Weather History for Shenandoah, IA

Change the Weather History Date:

Saturday, November 17, 2012

  Actual Average Record
Temperature  
Mean Temperature 52 °F -  
Max Temperature 64 °F 51 °F 73 °F (1953)
Min Temperature 39 °F 30 °F 3 °F (1959)
Degree Days  
Heating Degree Days 14    
Growing Degree Days 2 (Base 50)    
Moisture  
Dew Point 33 °F    
Average Humidity 56    
Maximum Humidity 81    
Minimum Humidity 24    
Precipitation  
Precipitation 0.00 in - - ()
Sea Level Pressure  
Sea Level Pressure 30.28 in    
Wind  
Wind Speed 11 mph (SSE)    
Max Wind Speed 23 mph    
Max Gust Speed 29 mph    
Visibility 9 miles    
Events      
Averages and records for this station are not official NWS values.
T = Trace of Precipitation, MM = Missing Value Source: NWS Daily Summary

Daily Weather History Graph

Daily Weather History Graph

Search for Another Location

Airport:

Trip Planner

Search our weather history database for the weather conditions in past years. The results will help you decide how hot, cold, wet, or windy it might be!

Date:

Astronomy

Nov. 17, 2012 Rise Set
Actual Time 7:11 AM CST 5:01 PM CST
Civil Twilight 6:41 AM CST 5:31 PM CST
Nautical Twilight 6:08 AM CST 6:04 PM CST
Astronomical Twilight 5:36 AM CST 6:36 PM CST
Moon 10:56 AM CST (11/17) 9:12 PM CST (11/17)
Length of Visible Light 10h 49m
Length of Day
9h 50m
Waxing Crescent, 20% of the Moon is Illuminated
Nov 17
Waxing Crescent
Nov 20
First Quarter
Nov 28
Full
Dec 6
Last Quarter
Dec 13
New

Hourly Weather History & Observations

Time (CST) Temp. Windchill Dew Point Humidity Pressure Visibility Wind Dir Wind Speed Gust Speed Precip Events Conditions
12:15 AM 44.6 °F 39.7 °F 35.6 °F 71% 30.35 in 10.0 mi SSE 9.2 mph - N/A   Scattered Clouds
12:35 AM 44.6 °F 39.7 °F 35.6 °F 71% 30.35 in 10.0 mi SSE 9.2 mph - N/A   Scattered Clouds
12:55 AM 44.6 °F 39.7 °F 35.6 °F 71% 30.35 in 10.0 mi South 9.2 mph - N/A   Clear
1:15 AM 42.8 °F 37.5 °F 35.6 °F 76% 30.35 in 10.0 mi SSE 9.2 mph - N/A   Scattered Clouds
1:35 AM 42.8 °F 37.5 °F 35.6 °F 76% 30.34 in 10.0 mi SSE 9.2 mph - N/A   Scattered Clouds
1:55 AM 42.8 °F 37.5 °F 35.6 °F 76% 30.34 in 10.0 mi SSE 9.2 mph - N/A   Scattered Clouds
2:15 AM 42.8 °F 37.5 °F 33.8 °F 70% 30.35 in 10.0 mi SSE 9.2 mph - N/A   Scattered Clouds
2:35 AM 41.0 °F 35.2 °F 33.8 °F 76% 30.35 in 10.0 mi SSE 9.2 mph - N/A   Scattered Clouds
2:55 AM 39.2 °F 33.0 °F 33.8 °F 81% 30.35 in 7.0 mi SSE 9.2 mph - N/A   Scattered Clouds
3:15 AM 39.2 °F 32.5 °F 33.8 °F 81% 30.34 in 7.0 mi SSE 10.4 mph - N/A   Scattered Clouds
3:35 AM 39.2 °F 32.0 °F 33.8 °F 81% 30.34 in 7.0 mi SSE 11.5 mph - N/A   Scattered Clouds
3:55 AM 39.2 °F 32.5 °F 33.8 °F 81% 30.33 in 7.0 mi SSE 10.4 mph - N/A   Scattered Clouds
4:15 AM 39.2 °F 32.0 °F 33.8 °F 81% 30.33 in 7.0 mi SSE 11.5 mph - N/A   Scattered Clouds
4:35 AM 39.2 °F 32.0 °F 33.8 °F 81% 30.33 in 7.0 mi SSE 11.5 mph - N/A   Scattered Clouds
4:55 AM 39.2 °F 33.0 °F 32.0 °F 75% 30.33 in 7.0 mi SSE 9.2 mph - N/A   Scattered Clouds
5:15 AM 39.2 °F 33.0 °F 32.0 °F 75% 30.33 in 7.0 mi SSE 9.2 mph - N/A   Scattered Clouds
5:35 AM 39.2 °F 32.5 °F 32.0 °F 75% 30.33 in 7.0 mi SSE 10.4 mph - N/A   Scattered Clouds
5:55 AM 39.2 °F 33.0 °F 33.8 °F 81% 30.33 in 7.0 mi SSE 9.2 mph - N/A   Clear
6:15 AM 39.2 °F 32.5 °F 33.8 °F 81% 30.33 in 7.0 mi SSE 10.4 mph - N/A   Clear
6:35 AM 39.2 °F 33.6 °F 33.8 °F 81% 30.33 in 10.0 mi SSE 8.1 mph - N/A   Scattered Clouds
6:55 AM 39.2 °F 33.0 °F 33.8 °F 81% 30.33 in 7.0 mi SSE 9.2 mph - N/A   Scattered Clouds
7:15 AM 39.2 °F 33.0 °F 33.8 °F 81% 30.33 in 7.0 mi SSE 9.2 mph - N/A   Scattered Clouds
7:35 AM 39.2 °F 33.6 °F 33.8 °F 81% 30.33 in 5.0 mi SSE 8.1 mph - N/A   Haze
7:55 AM 39.2 °F 33.6 °F 33.8 °F 81% 30.33 in 7.0 mi SSE 8.1 mph - N/A   Clear
8:15 AM 42.8 °F 37.5 °F 35.6 °F 76% 30.33 in 7.0 mi SSE 9.2 mph - N/A   Clear
8:35 AM 44.6 °F 38.4 °F 35.6 °F 71% 30.34 in 10.0 mi SSE 12.7 mph - N/A   Clear
8:55 AM 46.4 °F 40.7 °F 35.6 °F 66% 30.33 in 10.0 mi SSE 12.7 mph - N/A   Clear
9:15 AM 48.2 °F - 37.4 °F 66% 30.33 in 10.0 mi SSE 11.5 mph - N/A   Clear
9:35 AM 51.8 °F - 37.4 °F 58% 30.33 in 10.0 mi South 11.5 mph 16.1 mph N/A   Clear
9:55 AM 53.6 °F - 37.4 °F 54% 30.33 in 10.0 mi South 10.4 mph - N/A   Clear
10:15 AM 55.4 °F - 37.4 °F 51% 30.33 in 10.0 mi South 12.7 mph 17.3 mph N/A   Clear
10:35 AM 55.4 °F - 37.4 °F 51% 30.33 in 10.0 mi South 12.7 mph - N/A   Clear
11:55 AM 60.8 °F - 33.8 °F 36% 30.30 in 10.0 mi South 16.1 mph - N/A   Clear
12:15 PM 60.8 °F - 32.0 °F 34% 30.29 in 10.0 mi South 19.6 mph - N/A   Clear
12:35 PM 62.6 °F - 32.0 °F 32% 30.28 in 10.0 mi South 19.6 mph 23.0 mph N/A   Clear
12:55 PM 62.6 °F - 30.2 °F 30% 30.27 in 10.0 mi South 18.4 mph 24.2 mph N/A   Clear
1:15 PM 64.4 °F - 26.6 °F 24% 30.25 in 10.0 mi South 16.1 mph 26.5 mph N/A   Clear
1:35 PM 62.6 °F - 28.4 °F 27% 30.25 in 10.0 mi South 20.7 mph 27.6 mph N/A   Clear
1:55 PM 64.4 °F - 26.6 °F 24% 30.25 in 10.0 mi South 21.9 mph 28.8 mph N/A   Clear
2:15 PM 62.6 °F - 26.6 °F 26% 30.24 in 10.0 mi South 23.0 mph 27.6 mph N/A   Clear
2:35 PM 62.6 °F - 26.6 °F 26% 30.23 in 10.0 mi South 20.7 mph 25.3 mph N/A   Clear
2:55 PM 62.6 °F - 26.6 °F 26% 30.22 in 10.0 mi South 18.4 mph 28.8 mph N/A   Clear
3:15 PM 62.6 °F - 26.6 °F 26% 30.22 in 10.0 mi South 18.4 mph 25.3 mph N/A   Clear
3:35 PM 62.6 °F - 26.6 °F 26% 30.22 in 10.0 mi South 17.3 mph 25.3 mph N/A   Clear
3:55 PM 62.6 °F - 26.6 °F 26% 30.22 in 10.0 mi South 13.8 mph 25.3 mph N/A   Clear
4:15 PM 60.8 °F - 28.4 °F 29% 30.22 in 10.0 mi South 16.1 mph 24.2 mph N/A   Clear
4:35 PM 59.0 °F - 30.2 °F 34% 30.22 in 10.0 mi SSE 15.0 mph - N/A   Scattered Clouds
4:55 PM 59.0 °F - 30.2 °F 34% 30.22 in 10.0 mi South 16.1 mph 19.6 mph N/A   Scattered Clouds
5:15 PM 57.2 °F - 32.0 °F 38% 30.22 in 10.0 mi SSE 12.7 mph - N/A   Scattered Clouds
5:35 PM 55.4 °F - 33.8 °F 44% 30.22 in 10.0 mi SSE 10.4 mph - N/A   Scattered Clouds
5:55 PM 55.4 °F - 33.8 °F 44% 30.22 in 10.0 mi SSE 13.8 mph - N/A   Scattered Clouds
6:15 PM 55.4 °F - 33.8 °F 44% 30.22 in 10.0 mi SSE 13.8 mph - N/A   Scattered Clouds
6:35 PM 53.6 °F - 33.8 °F 47% 30.22 in 10.0 mi SSE 13.8 mph - N/A   Scattered Clouds
6:55 PM 53.6 °F - 33.8 °F 47% 30.22 in 10.0 mi SSE 11.5 mph - N/A   Clear
7:15 PM 53.6 °F - 33.8 °F 47% 30.22 in 10.0 mi South 15.0 mph 19.6 mph N/A   Scattered Clouds
7:35 PM 53.6 °F - 33.8 °F 47% 30.22 in 10.0 mi South 16.1 mph - N/A   Scattered Clouds
7:55 PM 53.6 °F - 33.8 °F 47% 30.22 in 10.0 mi South 13.8 mph - N/A   Mostly Cloudy
8:15 PM 51.8 °F - 33.8 °F 50% 30.23 in 10.0 mi South 10.4 mph - N/A   Mostly Cloudy
8:35 PM 51.8 °F - 33.8 °F 50% 30.24 in 10.0 mi South 10.4 mph - N/A   Scattered Clouds
8:55 PM 51.8 °F - 33.8 °F 50% 30.24 in 10.0 mi SSE 11.5 mph - N/A   Scattered Clouds
9:15 PM 48.2 °F - 33.8 °F 58% 30.23 in 10.0 mi SSE 9.2 mph - N/A   Scattered Clouds
9:35 PM 48.2 °F - 33.8 °F 58% 30.23 in 10.0 mi SSE 8.1 mph - N/A   Scattered Clouds
9:55 PM 48.2 °F - 33.8 °F 58% 30.23 in 10.0 mi SSE 8.1 mph - N/A   Scattered Clouds
10:15 PM 46.4 °F 42.9 °F 33.8 °F 62% 30.23 in 10.0 mi SSE 6.9 mph - N/A   Scattered Clouds
10:35 PM 48.2 °F - 32.0 °F 54% 30.23 in 10.0 mi South 8.1 mph - N/A   Clear
10:55 PM 48.2 °F - 30.2 °F 50% 30.23 in 10.0 mi South 9.2 mph - N/A   Scattered Clouds
11:15 PM 48.2 °F - 30.2 °F 50% 30.23 in 10.0 mi SSE 8.1 mph - N/A   Scattered Clouds
11:35 PM 48.2 °F - 30.2 °F 50% 30.23 in 10.0 mi SSE 6.9 mph - N/A   Mostly Cloudy
11:55 PM 48.2 °F - 28.4 °F 46% 30.23 in 10.0 mi SSE 6.9 mph - N/A   Overcast